EWG2WJ EDDH-EDDS

Flight info

Callsign EWG2WJ
Flight time 0h 56m
Altitude 32000
Route IDEKO8B IDEKO N850 NIE DCT BERXO DCT SILWE DCT OSBIT P605 TOSTU T726 LBU
Aircraft A320/M-SDE3FGHIRWY/LB1

Departure

Time 2026-05-01 13:35
Airport Hamburg Helmut Schmidt Airport (EDDH)

Arrival

Time 2026-05-01 14:32
Airport Stuttgart Airport (EDDS)
Time Latitude Longitude Altitude Speed Heading
2026-05-01 13:08 53.63169 10.00367 51 ft 0 kts 87°
2026-05-01 13:27 53.63168 10.00324 60 ft 2 kts 87°
2026-05-01 13:28 53.63158 10.00274 49 ft 2 kts 42°
2026-05-01 13:28 53.63147 10.00253 47 ft 2 kts 89°
2026-05-01 13:29 53.63143 10.00197 49 ft 2 kts 60°
2026-05-01 13:29 53.63135 10.00182 47 ft 0 kts 18°
2026-05-01 13:31 53.63372 10.00162 51 ft 20 kts 356°
2026-05-01 13:32 53.63521 10.00055 50 ft 0 kts 320°
2026-05-01 13:33 53.63539 10.00029 50 ft 8 kts 320°
2026-05-01 13:33 53.63551 9.99860 51 ft 8 kts 229°
2026-05-01 13:34 53.63549 9.99856 51 ft 0 kts 229°
2026-05-01 13:35 53.63319 9.99390 51 ft 87 kts 230°
2026-05-01 13:35 53.62798 9.98341 50 ft 145 kts 230°
2026-05-01 13:35 53.61322 9.95219 931 ft 188 kts 227°
2026-05-01 13:36 53.60440 9.93399 1433 ft 212 kts 227°
2026-05-01 13:36 53.59472 9.91454 2209 ft 219 kts 226°
2026-05-01 13:36 53.57509 9.87491 3629 ft 220 kts 229°
2026-05-01 13:37 53.56531 9.85500 4245 ft 222 kts 227°
2026-05-01 13:37 53.55498 9.83390 4758 ft 244 kts 227°
2026-05-01 13:37 53.54378 9.81092 5330 ft 263 kts 227°
2026-05-01 13:37 53.53180 9.78629 5942 ft 281 kts 228°
2026-05-01 13:38 53.50597 9.73315 7145 ft 302 kts 228°
2026-05-01 13:38 53.49252 9.70544 7739 ft 306 kts 228°
2026-05-01 13:38 53.47896 9.67759 8338 ft 309 kts 228°
2026-05-01 13:39 53.46522 9.64945 8951 ft 312 kts 227°
2026-05-01 13:39 53.45151 9.62146 9556 ft 315 kts 227°
2026-05-01 13:39 53.43742 9.59271 10186 ft 319 kts 227°
2026-05-01 13:39 53.42218 9.56577 10761 ft 319 kts 217°
2026-05-01 13:40 53.40409 9.54454 11329 ft 318 kts 206°
2026-05-01 13:40 53.38374 9.52977 11932 ft 318 kts 195°
2026-05-01 13:40 53.36222 9.52208 12536 ft 324 kts 185°
2026-05-01 13:40 53.33920 9.51762 12996 ft 338 kts 185°
2026-05-01 13:41 53.31555 9.51306 13635 ft 346 kts 185°
2026-05-01 13:41 53.29139 9.50836 14260 ft 351 kts 185°
2026-05-01 13:41 53.26725 9.50363 14826 ft 355 kts 185°
2026-05-01 13:41 53.24249 9.49877 15409 ft 359 kts 185°
2026-05-01 13:42 53.21755 9.49390 16004 ft 363 kts 185°
2026-05-01 13:42 53.19232 9.48898 16608 ft 367 kts 185°
2026-05-01 13:42 53.16673 9.48397 17227 ft 371 kts 185°
2026-05-01 13:42 53.14098 9.47894 17855 ft 375 kts 185°
2026-05-01 13:43 53.11478 9.47386 18516 ft 378 kts 185°
2026-05-01 13:43 53.08893 9.46886 19078 ft 381 kts 185°
2026-05-01 13:43 53.06236 9.46373 19656 ft 383 kts 185°
2026-05-01 13:43 53.03590 9.45860 20239 ft 384 kts 185°
2026-05-01 13:44 53.00918 9.45343 20837 ft 386 kts 185°
2026-05-01 13:44 52.98256 9.44826 21441 ft 387 kts 186°
2026-05-01 13:44 52.95578 9.44279 22065 ft 387 kts 186°
2026-05-01 13:44 52.92903 9.43707 22705 ft 388 kts 186°
2026-05-01 13:45 52.90260 9.43128 23334 ft 387 kts 186°
2026-05-01 13:45 52.87581 9.42539 23998 ft 387 kts 186°
2026-05-01 13:45 52.84910 9.41956 24557 ft 386 kts 186°
2026-05-01 13:45 52.82245 9.41378 25131 ft 385 kts 186°
2026-05-01 13:46 52.79591 9.40810 25710 ft 383 kts 185°
2026-05-01 13:46 52.76950 9.40251 26304 ft 381 kts 186°
2026-05-01 13:46 52.74344 9.39703 26908 ft 379 kts 185°
2026-05-01 13:46 52.71725 9.39152 27532 ft 377 kts 186°
2026-05-01 13:47 52.69134 9.38605 28163 ft 374 kts 186°
2026-05-01 13:47 52.66582 9.38064 28809 ft 371 kts 186°
2026-05-01 13:47 52.64027 9.37664 29476 ft 365 kts 179°
2026-05-01 13:47 52.61494 9.37821 30159 ft 360 kts 172°
2026-05-01 13:48 52.59083 9.38521 30773 ft 354 kts 166°
2026-05-01 13:48 52.56691 9.39435 31381 ft 348 kts 166°
2026-05-01 13:48 52.54338 9.40325 31969 ft 342 kts 166°
2026-05-01 13:48 52.52006 9.41200 32288 ft 347 kts 167°
2026-05-01 13:49 52.49639 9.42082 32355 ft 358 kts 167°
2026-05-01 13:49 52.47165 9.43000 32358 ft 370 kts 167°
2026-05-01 13:49 52.44613 9.43948 32358 ft 382 kts 167°
2026-05-01 13:49 52.41985 9.44923 32358 ft 394 kts 167°
2026-05-01 13:50 52.39261 9.45934 32356 ft 406 kts 167°
2026-05-01 13:50 52.33604 9.48031 32356 ft 427 kts 167°
2026-05-01 13:51 52.27708 9.50224 32355 ft 445 kts 167°
2026-05-01 13:51 52.21549 9.52498 32359 ft 461 kts 167°
2026-05-01 13:52 52.15185 9.54835 32357 ft 469 kts 167°
2026-05-01 13:52 52.08880 9.57152 32359 ft 468 kts 167°
2026-05-01 13:53 52.02512 9.59483 32356 ft 468 kts 167°
2026-05-01 13:53 51.92932 9.62467 32356 ft 468 kts 176°
2026-05-01 13:54 51.86448 9.63028 32342 ft 468 kts 176°
2026-05-01 13:54 51.79960 9.63576 32335 ft 468 kts 176°
2026-05-01 13:55 51.74531 9.64037 32335 ft 469 kts 176°
2026-05-01 13:55 51.68010 9.64587 32329 ft 469 kts 176°
2026-05-01 13:56 51.61494 9.65156 32327 ft 469 kts 176°
2026-05-01 13:56 51.54941 9.65705 32329 ft 470 kts 177°
2026-05-01 13:57 51.48447 9.66242 32332 ft 470 kts 176°
2026-05-01 13:57 51.41942 9.66791 32335 ft 469 kts 176°
2026-05-01 13:58 51.35428 9.67342 32330 ft 469 kts 176°
2026-05-01 13:58 51.28875 9.67889 32320 ft 470 kts 177°
2026-05-01 13:59 51.22342 9.68418 32322 ft 470 kts 176°
2026-05-01 13:59 51.15827 9.68963 32315 ft 470 kts 176°
2026-05-01 14:00 51.09288 9.69515 32314 ft 471 kts 176°
2026-05-01 14:00 51.02725 9.70056 32320 ft 472 kts 176°
2026-05-01 14:01 50.96169 9.70600 32320 ft 472 kts 176°
2026-05-01 14:01 50.89585 9.71142 32321 ft 473 kts 177°
2026-05-01 14:02 50.83011 9.71670 32321 ft 473 kts 177°
2026-05-01 14:02 50.76447 9.72196 32321 ft 474 kts 177°
2026-05-01 14:03 50.69846 9.72732 32328 ft 474 kts 177°
2026-05-01 14:03 50.63261 9.73287 32333 ft 474 kts 176°
2026-05-01 14:04 50.56693 9.73824 32333 ft 474 kts 177°
2026-05-01 14:04 50.50086 9.74343 32339 ft 474 kts 177°
2026-05-01 14:05 50.43498 9.74875 32327 ft 475 kts 177°
2026-05-01 14:05 50.36890 9.75418 32332 ft 476 kts 176°
2026-05-01 14:06 50.30293 9.75942 32338 ft 476 kts 176°
2026-05-01 14:06 50.23678 9.76459 32326 ft 476 kts 176°
2026-05-01 14:07 50.17023 9.76986 32335 ft 477 kts 176°
2026-05-01 14:08 50.07128 9.77774 31816 ft 473 kts 176°
2026-05-01 14:08 50.03841 9.78032 31174 ft 467 kts 176°
2026-05-01 14:08 50.00614 9.78286 30732 ft 458 kts 176°
2026-05-01 14:08 49.97490 9.78535 30605 ft 442 kts 176°
2026-05-01 14:09 49.94457 9.78776 30477 ft 427 kts 176°
2026-05-01 14:09 49.91579 9.79002 30353 ft 414 kts 176°
2026-05-01 14:09 49.88758 9.79220 30206 ft 400 kts 175°
2026-05-01 14:09 49.86009 9.79432 30060 ft 388 kts 175°
2026-05-01 14:10 49.83350 9.79639 29923 ft 376 kts 176°
2026-05-01 14:10 49.80773 9.79844 29776 ft 365 kts 176°
2026-05-01 14:10 49.78275 9.80045 29599 ft 355 kts 176°
2026-05-01 14:10 49.75822 9.80242 29287 ft 349 kts 175°
2026-05-01 14:11 49.73410 9.80430 29052 ft 342 kts 175°
2026-05-01 14:11 49.68699 9.80764 28297 ft 336 kts 176°
2026-05-01 14:11 49.66369 9.80876 27924 ft 333 kts 178°
2026-05-01 14:12 49.64095 9.80964 27560 ft 330 kts 176°
2026-05-01 14:12 49.61799 9.81053 27197 ft 328 kts 176°
2026-05-01 14:12 49.59545 9.81420 26839 ft 323 kts 167°
2026-05-01 14:12 49.57340 9.82040 26486 ft 321 kts 168°
2026-05-01 14:13 49.55143 9.82653 26137 ft 319 kts 168°
2026-05-01 14:13 49.53699 9.83054 25914 ft 318 kts 167°
2026-05-01 14:13 49.50807 9.83852 25453 ft 316 kts 167°
2026-05-01 14:13 49.48651 9.84448 25118 ft 314 kts 167°
2026-05-01 14:14 49.46504 9.85039 24775 ft 313 kts 167°
2026-05-01 14:14 49.44362 9.85629 24396 ft 313 kts 167°
2026-05-01 14:14 49.42214 9.86221 24031 ft 313 kts 167°
2026-05-01 14:14 49.40063 9.86813 23611 ft 313 kts 167°
2026-05-01 14:15 49.37918 9.87404 23172 ft 314 kts 167°
2026-05-01 14:15 49.35793 9.87990 22756 ft 314 kts 167°
2026-05-01 14:15 49.33636 9.88585 22320 ft 314 kts 167°
2026-05-01 14:15 49.31484 9.89172 21907 ft 315 kts 168°
2026-05-01 14:16 49.29317 9.89764 21491 ft 316 kts 167°
2026-05-01 14:16 49.27155 9.90356 21077 ft 316 kts 167°
2026-05-01 14:16 49.24981 9.90949 20683 ft 316 kts 167°
2026-05-01 14:16 49.22813 9.91529 20279 ft 317 kts 171°
2026-05-01 14:17 49.20631 9.91538 19867 ft 320 kts 187°
2026-05-01 14:17 49.18484 9.90583 19484 ft 325 kts 202°
2026-05-01 14:17 49.16582 9.88687 19097 ft 328 kts 219°
2026-05-01 14:17 49.15106 9.86015 18723 ft 331 kts 238°
2026-05-01 14:18 49.14154 9.82812 18305 ft 332 kts 249°
2026-05-01 14:18 49.13359 9.79495 17877 ft 333 kts 249°
2026-05-01 14:18 49.12561 9.76173 17460 ft 333 kts 249°
2026-05-01 14:18 49.12031 9.73972 17178 ft 333 kts 248°
2026-05-01 14:19 49.10967 9.69572 16640 ft 333 kts 249°
2026-05-01 14:19 49.10164 9.66254 16222 ft 330 kts 248°
2026-05-01 14:19 49.09380 9.63018 15826 ft 319 kts 248°
2026-05-01 14:19 49.08625 9.59911 15429 ft 311 kts 248°
2026-05-01 14:20 49.07882 9.56864 15037 ft 303 kts 248°
2026-05-01 14:20 49.06445 9.50976 14272 ft 290 kts 248°
2026-05-01 14:20 49.05621 9.48210 13843 ft 282 kts 236°
2026-05-01 14:21 49.04469 9.45837 13442 ft 274 kts 224°
2026-05-01 14:21 49.03093 9.43964 13023 ft 265 kts 213°
2026-05-01 14:21 49.01535 9.42532 12624 ft 258 kts 206°
2026-05-01 14:22 48.98440 9.39970 11821 ft 250 kts 206°
2026-05-01 14:22 48.96926 9.38708 11420 ft 246 kts 207°
2026-05-01 14:22 48.95431 9.37466 11012 ft 242 kts 205°
2026-05-01 14:22 48.93964 9.36249 10626 ft 239 kts 205°
2026-05-01 14:23 48.92512 9.35044 10246 ft 236 kts 206°
2026-05-01 14:23 48.91084 9.33852 9837 ft 233 kts 206°
2026-05-01 14:23 48.89699 9.32618 9422 ft 232 kts 208°
2026-05-01 14:23 48.88443 9.31094 8998 ft 234 kts 231°
2026-05-01 14:24 48.87624 9.28962 8598 ft 234 kts 240°
2026-05-01 14:24 48.86936 9.26738 8193 ft 232 kts 244°
2026-05-01 14:24 48.86288 9.24497 7797 ft 230 kts 242°
2026-05-01 14:24 48.85683 9.22284 7411 ft 229 kts 244°
2026-05-01 14:25 48.85082 9.20036 7023 ft 229 kts 243°
2026-05-01 14:25 48.84439 9.17827 6630 ft 227 kts 241°
2026-05-01 14:25 48.83792 9.15640 6232 ft 226 kts 243°
2026-05-01 14:25 48.83144 9.13498 5825 ft 226 kts 242°
2026-05-01 14:26 48.82492 9.11336 5429 ft 226 kts 242°
2026-05-01 14:26 48.81174 9.07005 4615 ft 225 kts 241°
2026-05-01 14:26 48.80520 9.04846 4225 ft 224 kts 242°
2026-05-01 14:27 48.79625 9.03005 3812 ft 212 kts 211°
2026-05-01 14:27 48.78294 9.02304 3459 ft 198 kts 179°
2026-05-01 14:27 48.76990 9.02355 3164 ft 181 kts 173°
2026-05-01 14:28 48.74585 9.03006 2702 ft 174 kts 159°
2026-05-01 14:28 48.73524 9.03793 2701 ft 166 kts 144°
2026-05-01 14:28 48.72606 9.04784 2689 ft 159 kts 140°
2026-05-01 14:28 48.71721 9.05801 2783 ft 160 kts 139°
2026-05-01 14:29 48.70831 9.06801 2883 ft 159 kts 140°
2026-05-01 14:29 48.69942 9.07809 2986 ft 159 kts 140°
2026-05-01 14:30 48.67497 9.11165 2464 ft 157 kts 114°
2026-05-01 14:30 48.67272 9.12747 2298 ft 155 kts 88°
2026-05-01 14:30 48.67479 9.14277 2102 ft 142 kts 76°
2026-05-01 14:31 48.68010 9.17052 1723 ft 135 kts 74°
2026-05-01 14:31 48.68277 9.18433 1559 ft 136 kts 75°
2026-05-01 14:31 48.68538 9.19809 1381 ft 138 kts 75°
2026-05-01 14:31 48.68795 9.21163 1289 ft 124 kts 75°
2026-05-01 14:32 48.68990 9.22210 1285 ft 72 kts 74°
2026-05-01 14:32 48.69071 9.22536 1287 ft 14 kts 17°
2026-05-01 14:32 48.69165 9.22518 1289 ft 9 kts 343°
2026-05-01 14:32 48.69178 9.22512 1289 ft 0 kts 342°
2026-05-01 14:33 48.69180 9.22511 1289 ft 2 kts 342°
2026-05-01 14:33 48.69268 9.22466 1287 ft 21 kts 332°
2026-05-01 14:33 48.69268 9.22305 1285 ft 16 kts 253°
2026-05-01 14:34 48.69239 9.22153 1285 ft 14 kts 255°
2026-05-01 14:34 48.69214 9.22017 1288 ft 13 kts 254°
2026-05-01 14:34 48.69189 9.21891 1289 ft 12 kts 254°
2026-05-01 14:34 48.69167 9.21772 1285 ft 11 kts 254°
2026-05-01 14:35 48.69145 9.21655 1288 ft 15 kts 254°
2026-05-01 14:35 48.69108 9.21463 1285 ft 24 kts 253°
2026-05-01 14:35 48.69061 9.21218 1290 ft 23 kts 255°
2026-05-01 14:35 48.69016 9.20980 1289 ft 24 kts 253°
2026-05-01 14:36 48.68967 9.20724 1286 ft 26 kts 254°
2026-05-01 14:36 48.68929 9.20520 1287 ft 15 kts 254°
2026-05-01 14:36 48.68890 9.20312 1285 ft 27 kts 253°
2026-05-01 14:36 48.68834 9.20024 1285 ft 21 kts 253°
2026-05-01 14:37 48.68871 9.19870 1288 ft 15 kts 326°
2026-05-01 14:37 48.68861 9.19682 1285 ft 20 kts 254°
2026-05-01 14:37 48.68826 9.19499 1287 ft 16 kts 255°
2026-05-01 14:37 48.68823 9.19383 1289 ft 12 kts 321°
2026-05-01 14:38 48.68887 9.19359 1286 ft 0 kts 343°